This demonstration page uses our WeatherBlox Daily Observations layout. Learn more.

40.92945, -100.16068

Hourly Observations for January 2, 2017

Temp ( °F °C ) Dew Point ( °F °C ) Humidity (%) Winds ( mph kmh ) Pressure ( in mb ) Visibility ( mi km ) Precip ( " mm )
12:15 am 00:15 Clear 29 -1.7 23 -5 78 78 SE 5 7 29.83 1010 10 16.0934 0 0
12:35 am 00:35 Partly Cloudy 27 -2.6 23 -5.2 83 83 SE 5 7 29.85 1011 10 16.0934 0 0
12:55 am 00:55 Mostly Cloudy 28 -2.3 24 -4.4 86 86 E 6 9 29.85 1011 10 16.0934 0 0
1:15 am 01:15 Cloudy 30 -0.9 25 -4 80 80 ESE 7 11 29.8 1009 10 16.0934 0 0
1:35 am 01:35 Cloudy 32 -0.2 26 -3.5 79 79 ESE 8 13 29.8 1009 10 16.0934 0 0
1:55 am 01:55 Cloudy 32 0.1 27 -2.9 80 80 ESE 8 13 29.8 1009 10 16.0934 0 0
2:15 am 02:15 Cloudy 33 0.6 28 -2 83 83 E 6 9 29.8 1009 10 16.0934 0 0
2:35 am 02:35 Cloudy 33 0.6 29 -1.8 84 84 E 8 13 29.8 1009 10 16.0934 0 0
2:55 am 02:55 Cloudy 33 0.6 29 -1.5 86 86 E 6 9 29.8 1009 10 16.0934 0 0
3:15 am 03:15 Cloudy 33 0.7 29 -1.5 85 85 ESE 6 9 29.83 1010 10 16.0934 0 0
3:35 am 03:35 Cloudy 33 0.8 29 -1.5 85 85 E 5 7 29.83 1010 10 16.0934 0 0
3:55 am 03:55 Cloudy 34 1 29 -1.5 84 84 E 6 9 29.83 1010 10 16.0934 0 0
4:15 am 04:15 Cloudy 34 1.1 29 -1.6 82 82 E 7 11 29.83 1010 10 16.0934 0 0
4:35 am 04:35 Cloudy 34 1.3 29 -1.5 82 82 E 6 9 29.8 1009 10 16.0934 0 0
4:55 am 04:55 Cloudy 34 1 29 -1.5 84 84 E 9 15 29.77 1008 10 16.0934 0 0
5:15 am 05:15 Cloudy 34 1 29 -1.7 82 82 E 10 17 29.77 1008 10 16.0934 0 0
5:35 am 05:35 Cloudy 34 1 29 -1.5 84 84 E 9 15 29.77 1008 10 16.0934 0 0
5:55 am 05:55 Cloudy 33 0.8 30 -1.2 87 87 E 8 13 29.8 1009 7 11.26538 0 0
6:15 am 06:15 Cloudy with Mist and Fog 33 0.5 30 -1 90 90 ENE 6 9 29.83 1010 5 8.0467 0 0
6:35 am 06:35 Cloudy with Mist and Fog 33 0.5 30 -1 90 90 NE 6 9 29.83 1010 5 8.0467 0 0
6:55 am 06:55 Cloudy with Mist and Fog 32 0.2 30 -0.9 92 92 ENE 7 11 29.83 1010 4 6.43736 0 0
7:15 am 07:15 Cloudy with Mist and Fog 32 0.2 31 -0.7 94 94 NE 6 9 29.85 1011 3 4.82802 0 0
7:35 am 07:35 Cloudy with Mist and Fog 32 0 31 -0.8 94 94 NNE 5 7 29.85 1011 3 4.82802 0 0
7:55 am 07:55 Cloudy with Mist and Fog 32 0 30 -0.9 94 94 NNE 6 9 29.85 1011 2.5 4.02335 0 0
8:15 am 08:15 Cloudy with Mist and Fog 32 -0.1 30 -1 94 94 NE 7 11 29.85 1011 1.75 2.816345 0 0
8:35 am 08:35 Cloudy with Mist and Fog 32 0 30 -1 93 93 NNE 6 9 29.85 1011 2 3.21868 0 0
8:55 am 08:55 Cloudy with Mist and Fog 32 0 31 -0.8 94 94 E 8 13 29.85 1011 2.5 4.02335 0 0
9:15 am 09:15 Cloudy with Mist and Fog 32 0 31 -0.8 94 94 E 9 15 29.85 1011 2.5 4.02335 0 0
9:35 am 09:35 Cloudy with Mist and Fog 32 0 31 -0.8 94 94 E 8 13 29.85 1011 2 3.21868 0 0
10:15 am 10:15 Cloudy with Mist and Fog 32 0.2 31 -0.4 96 96 E 6 9 29.88 1012 1 1.60934 0 0
10:35 am 10:35 Cloudy with Mist and Fog 33 0.5 32 0 96 96 ENE 5 7 29.88 1012 1 1.60934 0 0
10:55 am 10:55 Cloudy with Mist and Fog 33 0.7 32 0 95 95 NE 3 6 29.88 1012 1 1.60934 0 0
11:15 am 11:15 Cloudy with Mist and Fog 34 1 32 0.2 94 94 NNE 5 7 29.85 1011 1.5 2.41401 0 0
11:35 am 11:35 Cloudy with Mist and Fog 34 1.1 33 0.3 94 94 Calm 29.88 1012 2 3.21868 0 0
11:55 am 11:55 Cloudy with Mist and Fog 34 1.1 32 0.1 93 93 NNW 5 7 29.88 1012 1.75 2.816345 0 0
12:15 pm 12:15 Cloudy with Mist and Fog 34 1 32 0 93 93 NW 5 7 29.88 1012 1.25 2.011675 0 0
12:35 pm 12:35 Cloudy with Mist and Fog 34 1.1 32 0.1 93 93 N 7 11 29.85 1011 1.5 2.41401 0 0
12:55 pm 12:55 Cloudy with Mist and Fog 35 1.5 33 0.5 93 93 N 6 9 29.83 1010 1.25 2.011675 0 0
1:15 pm 13:15 Cloudy with Mist and Fog 34 1.3 33 0.5 94 94 NNE 6 9 29.85 1011 1.5 2.41401 0 0
1:35 pm 13:35 Cloudy with Mist and Fog 34 1.3 33 0.4 94 94 N 9 15 29.85 1011 1.75 2.816345 0 0
1:55 pm 13:55 Cloudy with Mist and Fog 34 1.3 33 0.3 93 93 N 9 15 29.85 1011 1.75 2.816345 0 0
2:15 pm 14:15 Cloudy with Mist and Fog 34 1.3 33 0.3 93 93 N 10 17 29.88 1012 1.75 2.816345 0 0
2:35 pm 14:35 Cloudy with Mist and Fog 35 1.4 33 0.4 93 93 N 9 15 29.88 1012 2 3.21868 0 0
2:55 pm 14:55 Cloudy with Mist and Fog 35 1.4 33 0.4 93 93 NNW 13 20 29.91 1013 2 3.21868 0 0
3:15 pm 15:15 Cloudy with Mist and Fog 35 1.5 33 0.5 93 93 NNW 12 19 29.91 1013 1.75 2.816345 0 0
3:35 pm 15:35 Cloudy with Mist and Fog 35 1.4 33 0.4 93 93 N 12 19 29.91 1013 2 3.21868 0 0
3:55 pm 15:55 Cloudy with Mist and Fog 34 1.1 32 0.1 93 93 N 13 20 29.94 1014 2.5 4.02335 0 0
4:15 pm 16:15 Cloudy with Mist and Fog 33 0.8 32 -0.1 94 94 N 17 28 29.97 1015 4 6.43736 0 0
4:35 pm 16:35 Cloudy with Mist and Fog 33 0.3 31 -0.8 92 92 N 22 35 29.97 1015 4 6.43736 0 0
4:55 pm 16:55 Cloudy 31 -0.4 29 -1.9 90 90 N 20 31 30.03 1017 7 11.26538 0 0
5:15 pm 17:15 Cloudy 30 -1 27 -2.8 88 88 N 21 33 30.03 1017 10 16.0934 0 0
5:35 pm 17:35 Cloudy 29 -1.7 26 -3.5 88 88 NNW 17 28 30.06 1018 10 16.0934 0 0
5:55 pm 17:55 Cloudy 28 -2.5 24 -4.5 86 86 N 22 35 30.09 1019 7 11.26538 0 0
6:15 pm 18:15 Cloudy 27 -3 23 -5.1 86 86 N 17 28 30.12 1020 10 16.0934 0 0
6:35 pm 18:35 Cloudy 26 -3.1 22 -5.3 85 85 N 20 31 30.12 1020 10 16.0934 0 0
6:55 pm 18:55 Cloudy 26 -3.2 22 -5.4 85 85 N 15 24 30.12 1020 10 16.0934 0 0
7:15 pm 19:15 Cloudy 26 -3.5 22 -5.6 86 86 N 14 22 30.15 1021 10 16.0934 0 0
7:35 pm 19:35 Cloudy 25 -3.7 20 -6.5 81 81 NNW 18 30 30.15 1021 10 16.0934 0 0
7:55 pm 19:55 Cloudy 25 -4.1 19 -7.5 77 77 NNW 17 28 30.18 1022 10 16.0934 0 0
8:15 pm 20:15 Cloudy 23 -4.8 18 -8 79 79 NNW 17 28 30.18 1022 10 16.0934 0 0
8:35 pm 20:35 Partly Cloudy 23 -5.1 17 -8.4 78 78 N 14 22 30.21 1023 10 16.0934 0 0
8:55 pm 20:55 Mostly Cloudy 22 -5.5 15 -9.4 74 74 N 26 43 30.21 1023 10 16.0934 0 0
9:15 pm 21:15 Cloudy 22 -5.5 15 -9.2 75 75 N 15 24 30.21 1023 10 16.0934 0 0
9:35 pm 21:35 Cloudy 22 -5.7 15 -9.5 75 75 NNW 17 28 30.21 1023 10 16.0934 0 0
9:55 pm 21:55 Cloudy 20 -6.7 13 -10.8 73 73 N 15 24 30.21 1023 10 16.0934 0 0
10:15 pm 22:15 Partly Cloudy 19 -7.1 12 -11.1 73 73 N 15 24 30.21 1023 10 16.0934 0 0
10:35 pm 22:35 Clear 18 -7.6 11 -11.8 72 72 NNW 18 30 30.21 1023 10 16.0934 0 0
10:55 pm 22:55 Clear 18 -8 10 -12 73 73 NNW 20 31 30.27 1025 10 16.0934 0 0
11:15 pm 23:15 Clear 17 -8.2 10 -12.5 71 71 NNW 20 31 30.27 1025 10 16.0934 0 0
11:35 pm 23:35 Clear 17 -8.2 9 -12.6 71 71 NNW 12 19 30.3 1026 10 16.0934 0 0
11:55 pm 23:55 Clear 17 -8.4 9 -12.6 72 72 NNW 16 26 30.3 1026 10 16.0934 0 0

Powered by AerisWeather